IK2ILW-4 Weather Reports


time (UTC)temp
C
wind
direction
speed
KPH
gust
KPH
rain 1hr
cm
rain 24hr
cm
rain mn
cm
humidity
%
barometer
mb
20260503072736 12 155 0.0 0.0 0.00 0.00 0.00 54 1021.6
20260503072253 12 155 0.0 0.0 0.00 0.00 0.00 56 1021.6
20260503071747 12 155 0.0 0.0 0.00 0.00 0.00 56 1021.6
20260503071247 13 155 0.0 0.0 0.00 0.00 0.00 59 1021.8
20260503070746 13 155 0.0 0.0 0.00 0.00 0.00 55 1021.8
20260503070242 12 155 0.0 0.0 0.00 0.00 0.00 55 1021.8
20260503060242 11 110 0.0 0.0 0.00 0.00 0.00 63 1021.8
20260503054738 10 113 0.0 0.0 0.00 0.00 0.00 66 1020.8
20260503054235 10 113 0.0 0.0 0.00 0.00 0.00 65 1020.8
20260503053751 10 113 0.0 0.0 0.00 0.00 0.00 64 1020.8
20260503053231 10 112 0.0 0.0 0.00 0.00 0.00 65 1020.8
20260503052750 10 112 0.0 0.0 0.00 0.00 0.00 64 1020.7
20260503052247 10 113 0.0 0.0 0.00 0.00 0.00 64 1020.7
20260503051747 10 113 0.0 0.0 0.00 0.00 0.00 63 1020.7
20260503051248 10 113 0.0 0.0 0.00 0.00 0.00 64 1021.6
20260503050749 10 113 0.0 0.0 0.00 0.00 0.00 64 1021.6
20260503050230 10 99 0.0 0.0 0.00 0.00 0.00 64 1021.6
20260503045731 9 105 0.0 0.0 0.00 0.00 0.00 64 1021.5
20260503045232 9 110 0.0 0.0 0.00 0.00 0.00 64 1021.5
20260503044733 10 110 0.0 0.0 0.00 0.00 0.00 64 1021.5
20260503044234 10 110 0.0 0.0 0.00 0.00 0.00 63 1021.5
20260503043735 10 101 0.0 0.0 0.00 0.00 0.00 64 1021.5
20260503043236 10 108 0.0 0.0 0.00 0.00 0.00 63 1021.5
20260503042738 9 114 0.0 0.0 0.00 0.00 0.00 61 1021.4
20260503042238 10 113 0.0 0.0 0.00 0.00 0.00 63 1021.4
20260503041737 10 114 0.0 0.0 0.00 0.00 0.00 64 1021.4
20260503041233 10 107 0.0 0.0 0.00 0.00 0.00 64 1021.2
20260503040749 10 108 0.0 0.0 0.00 0.00 0.00 64 1021.2
20260503040245 10 107 0.0 0.0 0.00 0.00 0.00 63 1021.2
20260503035746 10 107 0.0 0.0 0.00 0.00 0.00 62 1021.4
20260503035245 10 107 0.0 0.0 0.00 0.00 0.00 62 1021.4
20260503034741 9 107 0.0 0.0 0.00 0.00 0.00 63 1021.4
20260503034237 9 107 0.0 0.0 0.00 0.00 0.00 62 1021.5
20260503033737 10 108 0.0 0.0 0.00 0.00 0.00 62 1021.5
20260503033237 10 106 0.0 0.0 0.00 0.00 0.00 62 1021.5
20260503032737 9 105 0.0 0.0 0.00 0.00 0.00 62 1021.7
20260503032236 9 105 0.0 0.0 0.00 0.00 0.00 63 1021.7
20260503031736 9 106 0.0 0.0 0.00 0.00 0.00 62 1021.7
20260503031251 9 105 0.0 0.0 0.00 0.00 0.00 62 1021.7
20260503030747 9 108 0.0 0.0 0.00 0.00 0.00 62 1021.7
20260503030239 9 110 0.0 0.0 0.00 0.00 0.00 63 1021.7
20260503025736 9 107 0.0 0.0 0.00 0.00 0.00 63 1021.8
20260503025236 10 98 0.0 0.0 0.00 0.00 0.00 60 1021.8
20260503024735 10 293 0.0 0.0 0.00 0.00 0.00 59 1021.8
20260503024234 10 293 0.0 0.0 0.00 0.00 0.00 59 1021.8
20260503023749 10 293 0.0 0.0 0.00 0.00 0.00 59 1021.8
20260503023244 10 293 0.0 0.0 0.00 0.00 0.00 60 1021.8
20260503022743 10 293 0.0 0.0 0.00 0.00 0.00 61 1021.9
20260503022240 10 293 0.0 0.0 0.00 0.00 0.00 61 1021.9
20260503021740 9 293 0.0 0.0 0.00 0.00 0.00 61 1021.9
20260503021239 9 293 0.0 0.0 0.00 0.00 0.00 62 1022.0
20260503020735 9 293 0.0 0.0 0.00 0.00 0.00 62 1022.0
20260503020234 9 293 0.0 0.0 0.00 0.00 0.00 63 1022.0
20260503015731 9 293 0.0 0.0 0.00 0.00 0.00 63 1022.1
20260503015250 9 293 0.0 0.0 0.00 0.00 0.00 62 1022.1
20260503014747 10 293 0.0 0.0 0.00 0.00 0.00 62 1022.1
20260503014245 9 293 0.0 0.0 0.00 0.00 0.00 63 1022.3
20260503013741 9 293 0.0 0.0 0.00 0.00 0.00 63 1022.3
20260503013237 9 293 0.0 0.0 0.00 0.00 0.00 64 1022.3
20260503012753 9 293 0.0 0.0 0.00 0.00 0.00 63 1022.4
20260503012249 10 293 0.0 0.0 0.00 0.00 0.00 62 1022.4
20260503011745 10 293 0.0 0.0 0.00 0.00 0.00 62 1022.4
20260503011241 10 293 0.0 0.0 0.00 0.00 0.00 61 1022.5
20260503010738 10 293 0.0 0.0 0.00 0.00 0.00 61 1022.5
20260503010236 10 293 0.0 0.0 0.00 0.00 0.00 61 1022.5
20260503005735 10 293 0.0 0.0 0.00 0.00 0.00 61 1022.7
20260503005251 10 293 0.0 0.0 0.00 0.00 0.00 61 1022.7
20260503004732 10 293 0.0 0.0 0.00 0.00 0.00 61 1022.7
20260503004251 10 293 0.0 0.0 0.00 0.00 0.00 62 1022.9
20260503003745 10 293 0.0 0.0 0.00 0.00 0.00 63 1022.9
20260503003242 10 293 0.0 0.0 0.00 0.00 0.00 64 1022.9
20260503002742 9 293 0.0 0.0 0.00 0.00 0.00 64 1023.0
20260503002241 9 293 0.0 0.0 0.00 0.00 0.00 64 1023.0
20260503001738 9 293 0.0 0.0 0.00 0.00 0.00 64 1023.0
20260503001237 9 314 0.0 0.0 0.00 0.00 0.00 64 1022.3
20260503000736 9 314 0.0 0.0 0.00 0.00 0.00 64 1022.3
20260503000240 9 314 0.0 0.0 0.00 0.00 0.00 65 1022.3
20260502235734 9 314 0.0 0.0 0.00 0.00 0.00 63 1022.6
20260502235243 9 314 0.0 0.0 0.00 0.00 0.00 63 1022.6
20260502234743 9 314 0.0 0.0 0.00 0.00 0.00 62 1022.6
20260502234237 9 314 0.0 0.0 0.00 0.00 0.00 61 1022.7
20260502233736 9 314 0.0 0.0 0.00 0.00 0.00 60 1022.7
20260502233235 10 314 0.0 0.0 0.00 0.00 0.00 59 1022.7
20260502232731 10 315 0.0 0.0 0.00 0.00 0.00 59 1022.8
20260502232249 10 315 0.0 0.0 0.00 0.00 0.00 58 1022.8
20260502231748 10 318 0.0 0.0 0.00 0.00 0.00 58 1022.8
20260502231235 10 318 0.0 0.0 0.00 0.00 0.00 58 1023.8
20260502230735 10 318 0.0 0.0 0.00 0.00 0.00 59 1023.8
20260502230234 10 318 0.0 0.0 0.00 0.00 0.00 58 1023.8
20260502225731 10 318 0.0 0.0 0.00 0.00 0.00 58 1024.0
20260502225235 10 318 0.0 0.0 0.00 0.00 0.00 57 1024.0
20260502224734 10 318 0.0 0.0 0.00 0.00 0.00 58 1024.0
20260502224251 10 318 0.0 0.0 0.00 0.00 0.00 58 1024.0
20260502223746 10 318 0.0 0.0 0.00 0.00 0.00 58 1024.0
20260502223242 10 318 0.0 0.0 0.00 0.00 0.00 56 1024.0
20260502222742 10 318 0.0 0.0 0.00 0.00 0.00 56 1024.1
20260502222238 10 318 0.0 0.0 0.00 0.00 0.00 57 1024.1
20260502221753 10 318 0.0 0.0 0.00 0.00 0.00 59 1024.1
20260502221249 10 317 0.0 0.0 0.00 0.00 0.00 61 1024.1
20260502220749 10 317 0.0 0.0 0.00 0.00 0.00 61 1024.1
20260502220244 10 317 0.0 0.0 0.00 0.00 0.00 62 1024.1
20260502215744 10 317 0.0 0.0 0.00 0.00 0.00 61 1023.2
20260502215240 9 317 0.0 0.0 0.00 0.00 0.00 61 1023.2
20260502214739 9 317 0.0 0.0 0.00 0.00 0.00 61 1023.2
20260502214235 9 317 0.0 0.0 0.00 0.00 0.00 61 1024.1
20260502213739 10 317 0.0 0.0 0.00 0.00 0.00 60 1024.1
20260502213235 10 317 0.0 0.0 0.00 0.00 0.00 59 1024.1
20260502212731 10 317 0.0 0.0 0.00 0.00 0.00 58 1024.1
20260502212251 10 317 0.0 0.0 0.00 0.00 0.00 56 1024.1
20260502211747 10 317 0.0 0.0 0.00 0.00 0.00 56 1024.1
20260502211243 10 317 0.0 0.0 0.00 0.00 0.00 57 1023.4
20260502210742 10 317 0.0 0.0 0.00 0.00 0.00 57 1023.4
20260502210242 10 317 0.0 0.0 0.00 0.00 0.00 57 1023.4
20260502205737 10 317 0.0 0.0 0.00 0.00 0.00 57 1023.4
20260502205237 10 317 0.0 0.0 0.00 0.00 0.00 57 1023.4
20260502204753 10 317 0.0 0.0 0.00 0.00 0.00 58 1023.4
20260502204249 10 317 0.0 0.0 0.00 0.00 0.00 60 1023.7
20260502203744 10 317 0.0 0.0 0.00 0.00 0.00 61 1023.7
20260502203246 10 317 0.0 0.0 0.00 0.00 0.00 61 1023.7
20260502202746 10 317 0.0 0.0 0.00 0.00 0.00 62 1023.7
20260502202246 10 317 0.0 0.0 0.00 0.00 0.00 60 1023.7
20260502201742 10 317 0.0 0.0 0.00 0.00 0.00 60 1023.7
20260502201244 10 317 0.0 0.0 0.00 0.00 0.00 60 1023.8
20260502200744 10 317 0.0 0.0 0.00 0.00 0.00 59 1023.8
20260502200248 10 317 0.0 0.0 0.00 0.00 0.00 58 1023.8
20260502195744 10 317 0.0 0.0 0.00 0.00 0.00 58 1023.7
20260502195240 10 317 0.0 0.0 0.00 0.00 0.00 58 1023.7
20260502194735 10 317 0.0 0.0 0.00 0.00 0.00 58 1023.7
20260502193739 10 318 0.0 0.0 0.00 0.00 0.00 59 1023.7
20260502193235 10 309 0.0 0.0 0.00 0.00 0.00 60 1023.7
20260502192735 10 308 0.0 0.0 0.00 0.00 0.00 60 1023.6
20260502192250 10 308 0.0 0.0 0.00 0.00 0.00 60 1023.6
20260502191746 10 308 0.0 0.0 0.00 0.00 0.00 61 1023.6
20260502191242 10 308 0.0 0.0 0.00 0.00 0.00 60 1023.5
20260502190742 10 308 0.0 0.0 0.00 0.00 0.00 61 1023.5
20260502190244 11 308 0.0 0.0 0.00 0.00 0.00 60 1023.5
20260502185745 10 308 0.0 0.0 0.00 0.00 0.00 60 1023.4
20260502185245 10 308 0.0 0.0 0.00 0.00 0.00 60 1023.4
20260502184744 10 308 0.0 0.0 0.00 0.00 0.00 60 1023.4
20260502184240 11 308 0.0 0.0 0.00 0.00 0.00 60 1023.3
20260502183736 11 307 0.0 0.0 0.00 0.00 0.00 59 1023.3
20260502183233 11 307 0.0 0.0 0.00 0.00 0.00 59 1023.3
20260502182733 11 307 0.0 0.0 0.00 0.00 0.00 59 1023.1
20260502182252 11 307 0.0 0.0 0.00 0.00 0.00 58 1023.1
20260502181747 11 307 0.0 0.0 0.00 0.00 0.00 59 1023.1
20260502181243 11 307 0.0 0.0 0.00 0.00 0.00 59 1023.3
20260502180739 11 307 0.0 0.0 0.00 0.00 0.00 57 1023.3
20260502180236 12 307 0.0 0.0 0.00 0.00 0.00 57 1023.3
20260502170239 13 94 0.0 0.0 0.00 0.00 0.00 55 1023.1
20260502164236 15 276 0.0 0.0 0.00 0.00 0.00 52 1023.2
20260502163752 15 235 0.0 0.0 0.00 0.00 0.00 53 1023.2
20260502163247 15 238 0.0 0.0 0.00 0.00 0.00 53 1023.2
20260502162742 15 264 0.0 0.0 0.00 0.00 0.00 52 1023.3
20260502162237 15 255 0.0 0.0 0.00 0.00 0.00 52 1023.3
20260502161734 15 241 0.0 0.0 0.00 0.00 0.00 52 1023.3
20260502161234 15 264 0.0 0.0 0.00 0.00 0.00 55 1023.3
20260502160735 15 264 0.0 0.0 0.00 0.00 0.00 52 1023.3
20260502160236 15 255 0.0 0.0 0.00 0.00 0.00 52 1023.3
20260502151735 15 238 0.0 0.0 0.00 0.00 0.00 52 1023.3
20260502123738 13 79 0.0 0.0 0.00 0.00 0.00 60 1024.4
20260502123254 13 127 0.0 0.0 0.00 0.00 0.00 58 1024.4
20260502122742 12 128 0.0 0.0 0.00 0.00 0.00 61 1024.5
20260502122301 12 83 0.0 0.0 0.00 0.00 0.00 59 1024.5
20260502121747 12 153 0.0 0.0 0.00 0.00 0.00 59 1024.5
20260502113758 13 221 0.0 0.0 0.00 0.00 0.00 59 1025.0
20260502113245 12 151 0.0 0.0 0.00 0.00 0.00 61 1025.0
20260502112801 12 96 0.0 0.0 0.00 0.00 0.00 64 1025.0
20260502112245 12 58 0.0 0.0 0.00 0.00 0.00 59 1025.0
20260502111802 12 92 0.0 0.0 0.00 0.00 0.00 60 1025.0
20260502111249 13 118 0.0 0.0 0.00 0.00 0.00 58 1025.2
20260502110805 13 212 0.0 0.0 0.00 0.00 0.00 60 1025.2
20260502110248 13 140 0.0 0.0 0.00 0.00 0.00 57 1025.2
20260502105803 13 256 0.0 0.0 0.00 0.00 0.00 57 1025.3
20260502105246 13 214 0.0 0.0 0.00 0.00 0.00 58 1025.3
20260502104734 14 197 0.0 0.0 0.00 0.00 0.00 56 1025.3
20260502104251 13 223 0.0 0.0 0.00 0.00 0.00 55 1025.5
20260502103740 13 250 0.0 0.0 0.00 0.00 0.00 54 1025.5
20260502103259 13 203 0.0 0.0 0.00 0.00 0.00 55 1025.5
20260502102240 13 240 0.0 0.0 0.00 0.00 0.00 56 1025.7
20260502101757 13 248 0.0 0.0 0.00 0.00 0.00 55 1025.7
20260502101244 12 270 0.0 0.0 0.00 0.00 0.00 58 1025.6
20260502100800 12 240 0.0 0.0 0.00 0.00 0.00 56 1025.6
20260502100244 13 260 0.0 0.0 0.00 0.00 0.00 57 1025.6
20260502091236 12 233 0.0 0.0 0.00 0.00 0.00 58 1026.2
20260502090753 11 245 0.0 0.0 0.00 0.00 0.00 60 1026.2
20260502090241 11 247 0.0 0.0 0.00 0.00 0.00 59 1026.2